Location: Martley
(52.2333°N, 2.3667°W)
Time: 04:01:59
(UTC+00:00)

Nadezhda 4 Rocket - Pass Details

Date: 11 December 2019
Orbit: 949 x 993 km, 82.9° (Epoch: 17 January)

Event Time Altitude Azimuth Distance (km) Brightness Sun altitude
Exits shadow 04:31:52 53° 156° (SSE) 1,166 4.4 -31.7°
Drops below altitude 10° 04:36:29 10° 167° (SSE) 2,684 6.4 -31.0°
Sets 04:38:58 0° 169° (SSE) 3,621 7.1 -30.6°
